Time,TemperatureF,DewpointF,PressureIn,WindDirection,WindDirectionDegrees,WindSpeedMPH,WindSpeedGustMPH,Humidity,HourlyPrecipIn,Conditions,Clouds,dailyrainin,SoftwareType,DateUTC
2013-02-02 00:03:00,21.4,7.7,30.37,WNW,291,3.0,8.0,55,0.00,,,0.00,WUHU216DAVISVP2,2013-02-02 05:03:00,
2013-02-02 00:08:00,21.3,7.6,30.37,WSW,257,2.0,7.0,55,0.00,,,0.00,WUHU216DAVISVP2,2013-02-02 05:08:00,
2013-02-02 00:13:00,21.3,8.0,30.38,SW,228,0.0,5.0,56,0.00,,,0.00,WUHU216DAVISVP2,2013-02-02 05:13:00,
2013-02-02 00:18:00,21.3,7.6,30.38,WSW,247,2.0,6.0,55,0.00,,,0.00,WUHU216DAVISVP2,2013-02-02 05:18:00,
2013-02-02 00:24:00,21.3,7.6,30.38,SW,232,3.0,6.0,55,0.00,,,0.00,WUHU216DAVISVP2,2013-02-02 05:24:00,
2013-02-02 00:29:00,21.2,7.5,30.38,West,266,2.0,6.0,55,0.00,,,0.00,WUHU216DAVISVP2,2013-02-02 05:29:00,
2013-02-02 00:34:00,21.1,7.4,30.37,West,270,4.0,7.0,55,0.00,,,0.00,WUHU216DAVISVP2,2013-02-02 05:34:00,
2013-02-02 00:39:00,21.1,7.8,30.38,WSW,254,1.0,7.0,56,0.00,,,0.00,WUHU216DAVISVP2,2013-02-02 05:39:00,
2013-02-02 00:44:00,21.2,7.9,30.38,WSW,254,7.0,8.0,56,0.00,,,0.00,WUHU216DAVISVP2,2013-02-02 05:44:00,
2013-02-02 00:49:00,21.2,7.5,30.38,West,264,2.0,8.0,55,0.00,,,0.00,WUHU216DAVISVP2,2013-02-02 05:49:00,
2013-02-02 00:54:00,21.1,7.8,30.39,WSW,245,3.0,8.0,56,0.00,,,0.00,WUHU216DAVISVP2,2013-02-02 05:54:00,
2013-02-02 00:59:00,21.1,7.4,30.38,WSW,239,2.0,8.0,55,0.00,,,0.00,WUHU216DAVISVP2,2013-02-02 05:59:00,
2013-02-02 01:05:00,20.9,7.6,30.38,WNW,300,2.0,7.0,56,0.00,,,0.00,WUHU216DAVISVP2,2013-02-02 06:05:00,
2013-02-02 01:10:00,20.8,7.9,30.38,West,276,4.0,7.0,57,0.00,,,0.00,WUHU216DAVISVP2,2013-02-02 06:10:00,
2013-02-02 01:15:00,20.8,7.6,30.38,NW,314,3.0,9.0,56,0.00,,,0.00,WUHU216DAVISVP2,2013-02-02 06:15:00,
2013-02-02 01:20:00,20.8,7.9,30.38,WSW,245,3.0,9.0,57,0.00,,,0.00,WUHU216DAVISVP2,2013-02-02 06:20:00,
2013-02-02 01:25:00,20.8,7.6,30.38,WSW,247,3.0,9.0,56,0.00,,,0.00,WUHU216DAVISVP2,2013-02-02 06:25:00,
2013-02-02 01:30:00,20.7,7.9,30.38,WSW,256,3.0,8.0,57,0.00,,,0.00,WUHU216DAVISVP2,2013-02-02 06:30:00,
2013-02-02 01:36:00,20.7,8.3,30.37,West,266,4.0,8.0,58,0.00,,,0.00,WUHU216DAVISVP2,2013-02-02 06:36:00,
2013-02-02 01:41:00,20.7,7.9,30.38,West,260,3.0,9.0,57,0.00,,,0.00,WUHU216DAVISVP2,2013-02-02 06:41:00,
2013-02-02 01:46:00,20.6,7.8,30.37,WSW,241,3.0,9.0,57,0.00,,,0.00,WUHU216DAVISVP2,2013-02-02 06:46:00,
2013-02-02 01:51:00,20.6,7.8,30.37,WSW,244,3.0,9.0,57,0.00,,,0.00,WUHU216DAVISVP2,2013-02-02 06:51:00,
2013-02-02 01:56:00,20.6,7.8,30.37,WSW,256,3.0,9.0,57,0.00,,,0.00,WUHU216DAVISVP2,2013-02-02 06:56:00,
2013-02-02 02:01:00,20.6,7.8,30.37,SW,227,2.0,8.0,57,0.00,,,0.00,WUHU216DAVISVP2,2013-02-02 07:01:00,
2013-02-02 02:06:00,20.5,8.0,30.37,WSW,253,4.0,8.0,58,0.00,,,0.00,WUHU216DAVISVP2,2013-02-02 07:06:00,
2013-02-02 02:11:00,20.4,7.6,30.37,WSW,248,5.0,10.0,57,0.00,,,0.00,WUHU216DAVISVP2,2013-02-02 07:11:00,
2013-02-02 02:18:00,20.3,7.9,30.37,West,264,2.0,10.0,58,0.00,,,0.00,WUHU216DAVISVP2,2013-02-02 07:18:00,
2013-02-02 02:23:00,20.3,7.9,30.37,WSW,249,4.0,10.0,58,0.00,,,0.00,WUHU216DAVISVP2,2013-02-02 07:23:00,
2013-02-02 02:28:00,20.2,7.8,30.37,WSW,250,6.0,10.0,58,0.00,,,0.00,WUHU216DAVISVP2,2013-02-02 07:28:00,
2013-02-02 02:33:00,20.2,7.8,30.37,West,267,3.0,8.0,58,0.00,,,0.00,WUHU216DAVISVP2,2013-02-02 07:33:00,
2013-02-02 02:38:00,20.2,7.8,30.37,WNW,289,4.0,8.0,58,0.00,,,0.00,WUHU216DAVISVP2,2013-02-02 07:38:00,
2013-02-02 02:43:00,20.0,7.6,30.36,WSW,251,1.0,8.0,58,0.00,,,0.00,WUHU216DAVISVP2,2013-02-02 07:43:00,
2013-02-02 02:48:00,20.0,8.0,30.36,WSW,258,1.0,6.0,59,0.00,,,0.00,WUHU216DAVISVP2,2013-02-02 07:48:00,
2013-02-02 02:53:00,20.0,8.4,30.36,SW,224,4.0,5.0,60,0.00,,,0.00,WUHU216DAVISVP2,2013-02-02 07:53:00,
2013-02-02 02:58:00,20.0,8.0,30.36,WSW,247,2.0,6.0,59,0.00,,,0.00,WUHU216DAVISVP2,2013-02-02 07:58:00,
2013-02-02 03:05:00,20.0,8.4,30.36,WSW,246,3.0,6.0,60,0.00,,,0.00,WUHU216DAVISVP2,2013-02-02 08:05:00,
2013-02-02 03:14:00,19.8,7.8,30.36,SSW,206,2.0,7.0,59,0.00,,,0.00,WUHU216DAVISVP2,2013-02-02 08:14:00,
2013-02-02 03:19:00,19.7,7.7,30.36,West,267,1.0,7.0,59,0.00,,,0.00,WUHU216DAVISVP2,2013-02-02 08:19:00,
2013-02-02 03:24:00,19.6,8.0,30.36,WSW,247,2.0,7.0,60,0.00,,,0.00,WUHU216DAVISVP2,2013-02-02 08:24:00,
2013-02-02 03:29:00,19.5,7.9,30.36,NW,307,0.0,6.0,60,0.00,,,0.00,WUHU216DAVISVP2,2013-02-02 08:29:00,
2013-02-02 03:34:00,19.5,7.9,30.36,WSW,238,4.0,5.0,60,0.00,,,0.00,WUHU216DAVISVP2,2013-02-02 08:34:00,
2013-02-02 03:39:00,19.5,7.9,30.36,West,266,3.0,6.0,60,0.00,,,0.00,WUHU216DAVISVP2,2013-02-02 08:39:00,
2013-02-02 03:44:00,19.4,7.8,30.36,West,270,3.0,7.0,60,0.00,,,0.00,WUHU216DAVISVP2,2013-02-02 08:44:00,
2013-02-02 03:49:00,19.4,7.4,30.36,West,264,0.0,7.0,59,0.00,,,0.00,WUHU216DAVISVP2,2013-02-02 08:49:00,
2013-02-02 03:54:00,19.4,7.8,30.36,WSW,243,2.0,7.0,60,0.00,,,0.00,WUHU216DAVISVP2,2013-02-02 08:54:00,
2013-02-02 03:59:00,19.4,7.8,30.36,West,272,2.0,7.0,60,0.00,,,0.00,WUHU216DAVISVP2,2013-02-02 08:59:00,
2013-02-02 04:04:00,19.4,7.8,30.35,SW,232,5.0,5.0,60,0.00,,,0.00,WUHU216DAVISVP2,2013-02-02 09:04:00,
2013-02-02 04:09:00,19.5,7.5,30.35,WSW,250,3.0,5.0,59,0.00,,,0.00,WUHU216DAVISVP2,2013-02-02 09:09:00,
2013-02-02 04:14:00,19.4,7.8,30.35,SW,233,4.0,5.0,60,0.00,,,0.00,WUHU216DAVISVP2,2013-02-02 09:14:00,
2013-02-02 04:19:00,19.4,7.8,30.35,SW,235,2.0,5.0,60,0.00,,,0.00,WUHU216DAVISVP2,2013-02-02 09:19:00,
2013-02-02 04:24:00,19.4,7.8,30.35,SW,232,1.0,5.0,60,0.00,,,0.00,WUHU216DAVISVP2,2013-02-02 09:24:00,
2013-02-02 04:29:00,19.4,7.8,30.35,SSW,192,4.0,5.0,60,0.00,,,0.00,WUHU216DAVISVP2,2013-02-02 09:29:00,
2013-02-02 04:34:00,19.4,8.2,30.35,SW,228,2.0,5.0,61,0.00,,,0.00,WUHU216DAVISVP2,2013-02-02 09:34:00,
2013-02-02 04:39:00,19.3,8.1,30.35,WSW,253,0.0,5.0,61,0.00,,,0.00,WUHU216DAVISVP2,2013-02-02 09:39:00,
2013-02-02 04:44:00,19.3,7.7,30.35,WSW,242,1.0,5.0,60,0.00,,,0.00,WUHU216DAVISVP2,2013-02-02 09:44:00,
2013-02-02 04:49:00,19.3,8.1,30.35,WSW,245,2.0,5.0,61,0.00,,,0.00,WUHU216DAVISVP2,2013-02-02 09:49:00,
2013-02-02 04:54:00,19.3,7.7,30.35,SW,228,3.0,5.0,60,0.00,,,0.00,WUHU216DAVISVP2,2013-02-02 09:54:00,
2013-02-02 04:59:00,19.3,8.1,30.35,WSW,245,2.0,5.0,61,0.00,,,0.00,WUHU216DAVISVP2,2013-02-02 09:59:00,
2013-02-02 05:04:00,19.3,8.1,30.35,WSW,241,1.0,5.0,61,0.00,,,0.00,WUHU216DAVISVP2,2013-02-02 10:04:00,
2013-02-02 05:09:00,19.3,7.7,30.35,WSW,242,1.0,5.0,60,0.00,,,0.00,WUHU216DAVISVP2,2013-02-02 10:09:00,
2013-02-02 05:14:00,19.3,8.0,30.35,WSW,254,1.0,4.0,61,0.00,,,0.00,WUHU216DAVISVP2,2013-02-02 10:14:00,
2013-02-02 05:19:00,19.3,8.1,30.35,SW,226,1.0,4.0,61,0.00,,,0.00,WUHU216DAVISVP2,2013-02-02 10:19:00,
2013-02-02 05:24:00,19.3,8.4,30.35,WSW,239,2.0,4.0,62,0.00,,,0.00,WUHU216DAVISVP2,2013-02-02 10:24:00,
2013-02-02 05:29:00,19.3,8.4,30.35,WSW,241,5.0,5.0,62,0.00,,,0.00,WUHU216DAVISVP2,2013-02-02 10:29:00,
2013-02-02 05:34:00,19.2,7.9,30.35,WSW,252,2.0,6.0,61,0.00,,,0.00,WUHU216DAVISVP2,2013-02-02 10:34:00,
2013-02-02 05:39:00,19.3,8.0,30.35,WSW,252,1.0,6.0,61,0.00,,,0.00,WUHU216DAVISVP2,2013-02-02 10:39:00,
2013-02-02 05:44:00,19.3,8.0,30.35,WSW,247,2.0,6.0,61,0.00,,,0.00,WUHU216DAVISVP2,2013-02-02 10:44:00,
2013-02-02 05:49:00,19.4,8.5,30.35,South,186,0.0,6.0,62,0.00,,,0.00,WUHU216DAVISVP2,2013-02-02 10:49:00,
2013-02-02 05:54:00,19.4,8.2,30.35,SW,228,2.0,6.0,61,0.00,,,0.00,WUHU216DAVISVP2,2013-02-02 10:54:00,
2013-02-02 05:59:00,19.3,8.1,30.35,WSW,256,1.0,5.0,61,0.00,,,0.00,WUHU216DAVISVP2,2013-02-02 10:59:00,
2013-02-02 06:04:00,19.3,8.4,30.35,West,262,3.0,5.0,62,0.00,,,0.00,WUHU216DAVISVP2,2013-02-02 11:04:00,
2013-02-02 06:10:00,19.4,8.2,30.35,WSW,244,1.0,5.0,61,0.00,,,0.00,WUHU216DAVISVP2,2013-02-02 11:10:00,
2013-02-02 06:15:00,19.4,8.2,30.35,WSW,243,1.0,5.0,61,0.00,,,0.00,WUHU216DAVISVP2,2013-02-02 11:15:00,
2013-02-02 06:20:00,19.5,8.2,30.35,WSW,239,1.0,5.0,61,0.00,,,0.00,WUHU216DAVISVP2,2013-02-02 11:20:00,
2013-02-02 06:25:00,19.5,8.6,30.35,WSW,253,1.0,5.0,62,0.00,,,0.00,WUHU216DAVISVP2,2013-02-02 11:25:00,
2013-02-02 06:30:00,19.4,8.5,30.34,WSW,245,2.0,5.0,62,0.00,,,0.00,WUHU216DAVISVP2,2013-02-02 11:30:00,
2013-02-02 06:35:00,19.4,8.8,30.34,SW,228,4.0,4.0,63,0.00,,,0.00,WUHU216DAVISVP2,2013-02-02 11:35:00,
2013-02-02 06:40:00,19.4,8.9,30.34,SW,235,1.0,4.0,63,0.00,,,0.00,WUHU216DAVISVP2,2013-02-02 11:40:00,
2013-02-02 06:45:00,19.4,8.9,30.34,SW,235,0.0,4.0,63,0.00,,,0.00,WUHU216DAVISVP2,2013-02-02 11:45:00,
2013-02-02 06:50:00,19.3,8.8,30.34,SW,231,0.0,4.0,63,0.00,,,0.00,WUHU216DAVISVP2,2013-02-02 11:50:00,
2013-02-02 06:55:00,19.3,9.1,30.34,SW,231,0.0,4.0,64,0.00,,,0.00,WUHU216DAVISVP2,2013-02-02 11:55:00,
2013-02-02 07:00:00,19.3,9.5,30.34,SW,231,0.0,4.0,65,0.00,,,0.00,WUHU216DAVISVP2,2013-02-02 12:00:00,
2013-02-02 07:05:00,19.4,9.9,30.34,SW,231,0.0,4.0,66,0.00,,,0.00,WUHU216DAVISVP2,2013-02-02 12:05:00,
2013-02-02 07:10:00,19.4,9.6,30.35,SW,231,0.0,2.0,65,0.00,,,0.00,WUHU216DAVISVP2,2013-02-02 12:10:00,
2013-02-02 07:15:00,19.4,9.9,30.35,SW,231,0.0,2.0,66,0.00,,,0.00,WUHU216DAVISVP2,2013-02-02 12:15:00,
2013-02-02 07:21:00,19.4,9.9,30.35,SW,231,0.0,2.0,66,0.00,,,0.00,WUHU216DAVISVP2,2013-02-02 12:21:00,
2013-02-02 07:26:00,19.4,9.6,30.35,SW,231,0.0,2.0,65,0.00,,,0.00,WUHU216DAVISVP2,2013-02-02 12:26:00,
2013-02-02 07:31:00,19.4,9.6,30.35,SW,230,0.0,3.0,65,0.00,,,0.00,WUHU216DAVISVP2,2013-02-02 12:31:00,
2013-02-02 07:36:00,19.4,9.9,30.36,SW,231,0.0,3.0,66,0.00,,,0.00,WUHU216DAVISVP2,2013-02-02 12:36:00,
2013-02-02 07:41:00,19.5,10.0,30.36,SW,231,1.0,3.0,66,0.00,,,0.00,WUHU216DAVISVP2,2013-02-02 12:41:00,
2013-02-02 07:46:00,19.6,10.1,30.36,SW,231,0.0,3.0,66,0.00,,,0.00,WUHU216DAVISVP2,2013-02-02 12:46:00,
2013-02-02 07:51:00,19.6,9.8,30.36,SW,218,0.0,2.0,65,0.00,,,0.00,WUHU216DAVISVP2,2013-02-02 12:51:00,
2013-02-02 07:56:00,19.7,10.2,30.36,SW,218,1.0,2.0,66,0.00,,,0.00,WUHU216DAVISVP2,2013-02-02 12:56:00,
2013-02-02 08:01:00,19.7,9.5,30.36,SSW,208,0.0,2.0,64,0.00,,,0.00,WUHU216DAVISVP2,2013-02-02 13:01:00,
2013-02-02 08:06:00,19.8,9.6,30.36,SSW,192,0.0,2.0,64,0.00,,,0.00,WUHU216DAVISVP2,2013-02-02 13:06:00,
2013-02-02 08:12:00,19.9,9.4,30.36,SSW,193,0.0,2.0,63,0.00,,,0.00,WUHU216DAVISVP2,2013-02-02 13:12:00,
2013-02-02 08:17:00,20.2,10.0,30.36,SSW,205,0.0,3.0,64,0.00,,,0.00,WUHU216DAVISVP2,2013-02-02 13:17:00,
2013-02-02 08:22:00,20.8,10.2,30.36,SSW,209,0.0,3.0,63,0.00,,,0.00,WUHU216DAVISVP2,2013-02-02 13:22:00,
2013-02-02 08:27:00,21.3,10.0,30.36,SSW,204,0.0,3.0,61,0.00,,,0.00,WUHU216DAVISVP2,2013-02-02 13:27:00,
2013-02-02 08:32:00,21.9,10.9,30.35,SW,222,2.0,4.0,62,0.00,,,0.00,WUHU216DAVISVP2,2013-02-02 13:32:00,
2013-02-02 08:37:00,22.5,10.3,30.35,SW,214,1.0,4.0,59,0.00,,,0.00,WUHU216DAVISVP2,2013-02-02 13:37:00,
2013-02-02 08:42:00,22.9,9.9,30.35,South,182,1.0,4.0,57,0.00,,,0.00,WUHU216DAVISVP2,2013-02-02 13:42:00,
2013-02-02 08:47:00,23.4,10.4,30.35,South,185,0.0,4.0,57,0.00,,,0.00,WUHU216DAVISVP2,2013-02-02 13:47:00,
2013-02-02 08:52:00,23.6,9.8,30.34,South,188,2.0,3.0,55,0.00,,,0.00,WUHU216DAVISVP2,2013-02-02 13:52:00,
2013-02-02 08:57:00,23.5,9.3,30.35,South,181,3.0,5.0,54,0.00,,,0.00,WUHU216DAVISVP2,2013-02-02 13:57:00,
2013-02-02 09:03:00,23.9,10.1,30.34,SW,220,0.0,5.0,55,0.00,,,0.00,WUHU216DAVISVP2,2013-02-02 14:03:00,
2013-02-02 09:08:00,24.5,10.2,30.34,South,178,1.0,5.0,54,0.00,,,0.00,WUHU216DAVISVP2,2013-02-02 14:08:00,
2013-02-02 09:14:00,25.0,9.4,30.33,South,174,1.0,5.0,51,0.00,,,0.00,WUHU216DAVISVP2,2013-02-02 14:14:00,
2013-02-02 09:19:00,25.0,10.2,30.33,SSW,194,0.0,4.0,53,0.00,,,0.00,WUHU216DAVISVP2,2013-02-02 14:19:00,
2013-02-02 09:24:00,25.6,10.4,30.33,South,179,2.0,4.0,52,0.00,,,0.00,WUHU216DAVISVP2,2013-02-02 14:24:00,
2013-02-02 09:29:00,25.9,10.2,30.33,WNW,291,1.0,4.0,51,0.00,,,0.00,WUHU216DAVISVP2,2013-02-02 14:29:00,
2013-02-02 09:34:00,26.2,10.5,30.33,SSW,205,1.0,4.0,51,0.00,,,0.00,WUHU216DAVISVP2,2013-02-02 14:34:00,
2013-02-02 09:39:00,26.8,10.1,30.33,SSW,193,2.0,5.0,49,0.00,,,0.00,WUHU216DAVISVP2,2013-02-02 14:39:00,
2013-02-02 09:44:00,27.3,10.6,30.33,SSW,209,2.0,6.0,49,0.00,,,0.00,WUHU216DAVISVP2,2013-02-02 14:44:00,
2013-02-02 09:49:00,27.2,9.0,30.33,WSW,247,3.0,6.0,46,0.00,,,0.00,WUHU216DAVISVP2,2013-02-02 14:49:00,
2013-02-02 09:55:00,27.1,10.4,30.33,WNW,283,2.0,6.0,49,0.00,,,0.00,WUHU216DAVISVP2,2013-02-02 14:55:00,
2013-02-02 10:00:00,27.5,10.3,30.33,SW,235,2.0,6.0,48,0.00,,,0.00,WUHU216DAVISVP2,2013-02-02 15:00:00,
2013-02-02 10:05:00,28.0,11.7,30.33,SW,214,3.0,6.0,50,0.00,,,0.00,WUHU216DAVISVP2,2013-02-02 15:05:00,
2013-02-02 10:10:00,28.2,10.9,30.33,SW,218,5.0,7.0,48,0.00,,,0.00,WUHU216DAVISVP2,2013-02-02 15:10:00,
2013-02-02 10:16:00,28.2,10.4,30.33,SSE,168,0.0,7.0,47,0.00,,,0.00,WUHU216DAVISVP2,2013-02-02 15:16:00,
2013-02-02 10:21:00,28.1,9.8,30.33,SSW,197,3.0,7.0,46,0.00,,,0.00,WUHU216DAVISVP2,2013-02-02 15:21:00,
2013-02-02 10:26:00,28.3,11.0,30.32,SSE,158,3.0,7.0,48,0.00,,,0.00,WUHU216DAVISVP2,2013-02-02 15:26:00,
2013-02-02 10:31:00,28.5,10.2,30.32,SSE,161,2.0,7.0,46,0.00,,,0.00,WUHU216DAVISVP2,2013-02-02 15:31:00,
2013-02-02 10:36:00,28.8,10.5,30.32,SW,220,1.0,7.0,46,0.00,,,0.00,WUHU216DAVISVP2,2013-02-02 15:36:00,
2013-02-02 10:41:00,29.2,10.9,30.32,South,181,3.0,7.0,46,0.00,,,0.00,WUHU216DAVISVP2,2013-02-02 15:41:00,
2013-02-02 10:46:00,29.2,10.9,30.31,South,171,7.0,7.0,46,0.00,,,0.00,WUHU216DAVISVP2,2013-02-02 15:46:00,
2013-02-02 10:51:00,29.2,11.8,30.31,WSW,247,2.0,7.0,48,0.00,,,0.00,WUHU216DAVISVP2,2013-02-02 15:51:00,
2013-02-02 10:56:00,29.6,10.7,30.31,SW,226,1.0,7.0,45,0.00,,,0.00,WUHU216DAVISVP2,2013-02-02 15:56:00,
2013-02-02 11:01:00,29.8,9.8,30.31,SSW,203,3.0,7.0,43,0.00,,,0.00,WUHU216DAVISVP2,2013-02-02 16:01:00,
2013-02-02 11:06:00,30.1,10.7,30.30,SW,220,6.0,9.0,44,0.00,,,0.00,WUHU216DAVISVP2,2013-02-02 16:06:00,
2013-02-02 11:11:00,30.6,11.1,30.30,SSW,201,1.0,9.0,44,0.00,,,0.00,WUHU216DAVISVP2,2013-02-02 16:11:00,
2013-02-02 11:16:00,30.8,10.8,30.30,SW,235,9.0,9.0,43,0.00,,,0.00,WUHU216DAVISVP2,2013-02-02 16:16:00,
2013-02-02 11:21:00,30.7,11.2,30.30,SSW,210,2.0,9.0,44,0.00,,,0.00,WUHU216DAVISVP2,2013-02-02 16:21:00,
2013-02-02 11:26:00,30.5,9.9,30.30,SSW,208,4.0,9.0,42,0.00,,,0.00,WUHU216DAVISVP2,2013-02-02 16:26:00,
2013-02-02 11:31:00,30.8,10.2,30.29,SSE,163,1.0,9.0,42,0.01,,,0.01,WUHU216DAVISVP2,2013-02-02 16:31:00,
2013-02-02 11:36:00,31.1,11.6,30.29,SW,214,1.0,8.0,44,0.01,,,0.01,WUHU216DAVISVP2,2013-02-02 16:36:00,
2013-02-02 11:41:00,31.5,11.4,30.28,SSW,206,1.0,7.0,43,0.01,,,0.01,WUHU216DAVISVP2,2013-02-02 16:41:00,
2013-02-02 11:47:00,32.0,11.3,30.28,WSW,247,1.0,7.0,42,0.01,,,0.01,WUHU216DAVISVP2,2013-02-02 16:47:00,
2013-02-02 11:52:00,32.8,13.1,30.27,South,185,2.0,7.0,44,0.01,,,0.01,WUHU216DAVISVP2,2013-02-02 16:52:00,
2013-02-02 11:57:00,32.9,11.6,30.27,SSE,158,0.0,7.0,41,0.02,,,0.02,WUHU216DAVISVP2,2013-02-02 16:57:00,
2013-02-02 12:02:00,33.4,11.5,30.26,SSE,166,2.0,7.0,40,0.02,,,0.02,WUHU216DAVISVP2,2013-02-02 17:02:00,
2013-02-02 12:07:00,33.5,11.5,30.26,South,183,2.0,7.0,40,0.02,,,0.02,WUHU216DAVISVP2,2013-02-02 17:07:00,
2013-02-02 12:12:00,33.5,11.5,30.25,WSW,255,4.0,7.0,40,0.02,,,0.02,WUHU216DAVISVP2,2013-02-02 17:12:00,
2013-02-02 12:17:00,33.2,11.8,30.25,SW,226,2.0,6.0,41,0.02,,,0.02,WUHU216DAVISVP2,2013-02-02 17:17:00,
2013-02-02 12:22:00,33.3,11.4,30.24,SW,222,3.0,6.0,40,0.03,,,0.03,WUHU216DAVISVP2,2013-02-02 17:22:00,
2013-02-02 12:27:00,33.7,12.9,30.24,South,190,4.0,6.0,42,0.03,,,0.03,WUHU216DAVISVP2,2013-02-02 17:27:00,
2013-02-02 12:32:00,33.7,12.3,30.24,SSE,165,1.0,6.0,41,0.02,,,0.03,WUHU216DAVISVP2,2013-02-02 17:32:00,
2013-02-02 12:37:00,33.3,11.9,30.23,South,172,0.0,7.0,41,0.03,,,0.04,WUHU216DAVISVP2,2013-02-02 17:37:00,
2013-02-02 12:42:00,33.2,11.8,30.23,SW,228,0.0,8.0,41,0.03,,,0.04,WUHU216DAVISVP2,2013-02-02 17:42:00,
2013-02-02 12:49:00,33.9,11.9,30.22,SSE,165,1.0,8.0,40,0.03,,,0.04,WUHU216DAVISVP2,2013-02-02 17:49:00,
2013-02-02 12:54:00,33.4,12.6,30.22,South,185,1.0,8.0,42,0.02,,,0.04,WUHU216DAVISVP2,2013-02-02 17:54:00,
2013-02-02 12:59:00,33.7,11.7,30.21,South,189,1.0,5.0,40,0.02,,,0.04,WUHU216DAVISVP2,2013-02-02 17:59:00,
2013-02-02 13:04:00,33.7,11.7,30.21,SSW,196,1.0,6.0,40,0.02,,,0.04,WUHU216DAVISVP2,2013-02-02 18:04:00,
2013-02-02 13:09:00,33.7,12.3,30.21,SW,214,3.0,6.0,41,0.03,,,0.05,WUHU216DAVISVP2,2013-02-02 18:09:00,
2013-02-02 13:14:00,33.8,12.9,30.20,SW,231,3.0,6.0,42,0.03,,,0.05,WUHU216DAVISVP2,2013-02-02 18:14:00,
2013-02-02 13:20:00,33.8,11.8,30.20,SSW,197,4.0,7.0,40,0.02,,,0.05,WUHU216DAVISVP2,2013-02-02 18:20:00,
2013-02-02 13:25:00,33.5,11.0,30.20,SSW,204,5.0,7.0,39,0.02,,,0.05,WUHU216DAVISVP2,2013-02-02 18:25:00,
2013-02-02 13:30:00,33.4,11.5,30.19,South,184,2.0,8.0,40,0.03,,,0.06,WUHU216DAVISVP2,2013-02-02 18:30:00,
2013-02-02 13:35:00,33.2,11.3,30.19,SSE,156,0.0,8.0,40,0.03,,,0.06,WUHU216DAVISVP2,2013-02-02 18:35:00,
2013-02-02 13:40:00,32.9,11.0,30.19,SSE,156,4.0,8.0,40,0.02,,,0.06,WUHU216DAVISVP2,2013-02-02 18:40:00,
2013-02-02 13:45:00,32.6,11.3,30.18,SSW,201,1.0,7.0,41,0.02,,,0.06,WUHU216DAVISVP2,2013-02-02 18:45:00,
2013-02-02 13:50:00,32.8,11.1,30.18,South,187,5.0,6.0,40,0.02,,,0.06,WUHU216DAVISVP2,2013-02-02 18:50:00,
2013-02-02 13:55:00,33.0,11.8,30.18,SSW,199,1.0,7.0,41,0.02,,,0.06,WUHU216DAVISVP2,2013-02-02 18:55:00,
2013-02-02 14:00:00,33.2,11.5,30.18,South,187,6.0,7.0,40,0.02,,,0.06,WUHU216DAVISVP2,2013-02-02 19:00:00,
2013-02-02 14:05:00,33.0,12.9,30.17,South,186,3.0,8.0,43,0.03,,,0.07,WUHU216DAVISVP2,2013-02-02 19:05:00,
2013-02-02 14:10:00,33.0,12.2,30.17,WSW,245,3.0,8.0,42,0.02,,,0.07,WUHU216DAVISVP2,2013-02-02 19:10:00,
2013-02-02 14:15:00,32.9,13.7,30.17,WSW,238,1.0,8.0,45,0.02,,,0.07,WUHU216DAVISVP2,2013-02-02 19:15:00,
2013-02-02 14:21:00,32.6,14.0,30.17,West,272,2.0,8.0,46,0.02,,,0.07,WUHU216DAVISVP2,2013-02-02 19:21:00,
2013-02-02 14:26:00,32.4,13.8,30.17,SW,226,3.0,8.0,46,0.02,,,0.07,WUHU216DAVISVP2,2013-02-02 19:26:00,
2013-02-02 14:31:00,32.3,13.2,30.17,SSW,213,3.0,7.0,45,0.02,,,0.08,WUHU216DAVISVP2,2013-02-02 19:31:00,
2013-02-02 14:36:00,32.0,12.9,30.17,West,262,3.0,7.0,45,0.02,,,0.08,WUHU216DAVISVP2,2013-02-02 19:36:00,
2013-02-02 14:41:00,32.1,13.6,30.17,SW,233,3.0,7.0,46,0.02,,,0.08,WUHU216DAVISVP2,2013-02-02 19:41:00,
2013-02-02 14:46:00,32.2,14.7,30.16,SW,218,3.0,7.0,48,0.02,,,0.08,WUHU216DAVISVP2,2013-02-02 19:46:00,
2013-02-02 14:51:00,32.2,14.7,30.16,West,269,3.0,7.0,48,0.02,,,0.08,WUHU216DAVISVP2,2013-02-02 19:51:00,
2013-02-02 14:56:00,32.0,14.5,30.16,SSE,164,3.0,7.0,48,0.02,,,0.08,WUHU216DAVISVP2,2013-02-02 19:56:00,
2013-02-02 15:01:00,31.7,15.1,30.16,SSE,154,4.0,6.0,50,0.02,,,0.08,WUHU216DAVISVP2,2013-02-02 20:01:00,
2013-02-02 15:06:00,31.7,15.1,30.15,SSE,166,1.0,7.0,50,0.01,,,0.08,WUHU216DAVISVP2,2013-02-02 20:06:00,
2013-02-02 15:11:00,31.7,14.6,30.15,SSE,154,3.0,7.0,49,0.01,,,0.08,WUHU216DAVISVP2,2013-02-02 20:11:00,
2013-02-02 15:16:00,31.7,15.1,30.15,SSW,207,2.0,7.0,50,0.01,,,0.08,WUHU216DAVISVP2,2013-02-02 20:16:00,
2013-02-02 15:21:00,31.8,14.8,30.14,South,191,2.0,7.0,49,0.01,,,0.08,WUHU216DAVISVP2,2013-02-02 20:21:00,
2013-02-02 15:26:00,31.7,14.6,30.14,South,179,2.0,8.0,49,0.02,,,0.09,WUHU216DAVISVP2,2013-02-02 20:26:00,
2013-02-02 15:32:00,31.7,15.1,30.14,SW,228,4.0,8.0,50,0.01,,,0.09,WUHU216DAVISVP2,2013-02-02 20:32:00,
2013-02-02 15:37:00,31.9,15.3,30.13,South,188,4.0,8.0,50,0.01,,,0.09,WUHU216DAVISVP2,2013-02-02 20:37:00,
2013-02-02 15:42:00,31.8,13.8,30.13,SW,230,2.0,8.0,47,0.01,,,0.09,WUHU216DAVISVP2,2013-02-02 20:42:00,
2013-02-02 15:47:00,32.0,14.9,30.13,WSW,247,0.0,5.0,49,0.01,,,0.09,WUHU216DAVISVP2,2013-02-02 20:47:00,
2013-02-02 15:52:00,32.2,14.6,30.12,SW,233,1.0,5.0,48,0.01,,,0.09,WUHU216DAVISVP2,2013-02-02 20:52:00,
2013-02-02 15:57:00,32.3,13.2,30.12,South,187,0.0,5.0,45,0.01,,,0.09,WUHU216DAVISVP2,2013-02-02 20:57:00,
2013-02-02 16:02:00,32.1,14.0,30.12,South,177,1.0,5.0,47,0.01,,,0.09,WUHU216DAVISVP2,2013-02-02 21:02:00,
2013-02-02 16:07:00,32.1,13.5,30.12,SSE,155,4.0,5.0,46,0.01,,,0.09,WUHU216DAVISVP2,2013-02-02 21:07:00,
2013-02-02 16:12:00,31.9,12.8,30.11,SSE,162,1.0,5.0,45,0.01,,,0.09,WUHU216DAVISVP2,2013-02-02 21:12:00,
2013-02-02 16:17:00,31.8,13.7,30.11,SW,218,0.0,5.0,47,0.01,,,0.09,WUHU216DAVISVP2,2013-02-02 21:17:00,
2013-02-02 16:22:00,32.0,13.4,30.11,SSW,196,3.0,8.0,46,0.01,,,0.09,WUHU216DAVISVP2,2013-02-02 21:22:00,
2013-02-02 16:27:00,31.9,13.8,30.11,WSW,253,3.0,8.0,47,0.00,,,0.09,WUHU216DAVISVP2,2013-02-02 21:27:00,
2013-02-02 16:34:00,32.1,14.5,30.11,SW,216,3.0,7.0,48,0.00,,,0.09,WUHU216DAVISVP2,2013-02-02 21:34:00,
2013-02-02 16:39:00,32.2,14.1,30.11,South,176,3.0,7.0,47,0.00,,,0.09,WUHU216DAVISVP2,2013-02-02 21:39:00,
2013-02-02 16:44:00,32.3,14.2,30.11,South,173,1.0,5.0,47,0.01,,,0.10,WUHU216DAVISVP2,2013-02-02 21:44:00,
2013-02-02 16:49:00,32.2,13.6,30.11,SSE,164,1.0,5.0,46,0.01,,,0.10,WUHU216DAVISVP2,2013-02-02 21:49:00,
2013-02-02 16:54:00,32.1,13.5,30.10,SSE,164,1.0,5.0,46,0.01,,,0.10,WUHU216DAVISVP2,2013-02-02 21:54:00,
2013-02-02 16:59:00,32.0,15.4,30.10,SSE,164,0.0,5.0,50,0.01,,,0.10,WUHU216DAVISVP2,2013-02-02 21:59:00,
2013-02-02 17:04:00,32.0,14.4,30.10,SSW,192,4.0,6.0,48,0.01,,,0.10,WUHU216DAVISVP2,2013-02-02 22:04:00,
2013-02-02 17:09:00,32.1,15.0,30.09,SSE,154,4.0,9.0,49,0.01,,,0.10,WUHU216DAVISVP2,2013-02-02 22:09:00,
2013-02-02 17:14:00,32.0,15.4,30.09,SSE,163,3.0,9.0,50,0.01,,,0.10,WUHU216DAVISVP2,2013-02-02 22:14:00,
2013-02-02 17:19:00,32.0,15.9,30.08,SSE,161,2.0,9.0,51,0.01,,,0.10,WUHU216DAVISVP2,2013-02-02 22:19:00,
2013-02-02 17:24:00,32.0,14.9,30.07,SSE,156,2.0,9.0,49,0.01,,,0.10,WUHU216DAVISVP2,2013-02-02 22:24:00,
2013-02-02 17:29:00,32.0,15.4,30.07,SSE,160,2.0,9.0,50,0.01,,,0.10,WUHU216DAVISVP2,2013-02-02 22:29:00,
2013-02-02 17:34:00,31.9,15.8,30.06,South,169,3.0,10.0,51,0.01,,,0.10,WUHU216DAVISVP2,2013-02-02 22:34:00,
2013-02-02 17:39:00,31.9,16.2,30.07,South,183,2.0,10.0,52,0.01,,,0.10,WUHU216DAVISVP2,2013-02-02 22:39:00,
2013-02-02 17:45:00,31.9,16.2,30.07,SSE,168,2.0,10.0,52,0.00,,,0.10,WUHU216DAVISVP2,2013-02-02 22:45:00,
2013-02-02 17:50:00,31.8,16.6,30.06,South,171,2.0,9.0,53,0.00,,,0.10,WUHU216DAVISVP2,2013-02-02 22:50:00,
2013-02-02 17:56:00,31.9,17.1,30.06,SSW,206,2.0,9.0,54,0.00,,,0.10,WUHU216DAVISVP2,2013-02-02 22:56:00,
2013-02-02 18:01:00,31.9,18.0,30.06,SSW,197,1.0,7.0,56,0.00,,,0.10,WUHU216DAVISVP2,2013-02-02 23:01:00,
2013-02-02 18:06:00,31.8,18.7,30.07,SSE,157,3.0,10.0,58,0.00,,,0.10,WUHU216DAVISVP2,2013-02-02 23:06:00,
2013-02-02 18:11:00,31.4,20.3,30.07,SSW,210,2.0,11.0,63,0.00,,,0.10,WUHU216DAVISVP2,2013-02-02 23:11:00,
2013-02-02 18:16:00,31.0,21.4,30.07,SSW,197,1.0,11.0,67,0.00,,,0.10,WUHU216DAVISVP2,2013-02-02 23:16:00,
2013-02-02 18:21:00,30.5,22.2,30.07,SSW,208,2.0,11.0,71,0.00,,,0.10,WUHU216DAVISVP2,2013-02-02 23:21:00,
2013-02-02 18:26:00,30.1,22.9,30.07,SSE,158,3.0,11.0,74,0.00,,,0.10,WUHU216DAVISVP2,2013-02-02 23:26:00,
2013-02-02 18:31:00,29.7,23.7,30.07,SSW,212,1.0,10.0,78,0.00,,,0.10,WUHU216DAVISVP2,2013-02-02 23:31:00,
2013-02-02 18:36:00,29.6,24.5,30.07,SSW,210,6.0,7.0,81,0.00,,,0.10,WUHU216DAVISVP2,2013-02-02 23:36:00,
2013-02-02 18:41:00,29.4,24.6,30.08,SW,222,2.0,7.0,82,0.00,,,0.10,WUHU216DAVISVP2,2013-02-02 23:41:00,
2013-02-02 18:46:00,29.3,25.0,30.07,SW,220,0.0,7.0,84,0.00,,,0.10,WUHU216DAVISVP2,2013-02-02 23:46:00,
2013-02-02 18:51:00,29.3,25.6,30.08,WSW,243,0.0,7.0,86,0.00,,,0.10,WUHU216DAVISVP2,2013-02-02 23:51:00,
2013-02-02 18:57:00,29.1,25.4,30.08,South,183,0.0,4.0,86,0.00,,,0.10,WUHU216DAVISVP2,2013-02-02 23:57:00,
2013-02-02 19:02:00,29.0,25.6,30.07,SW,226,2.0,4.0,87,0.00,,,0.10,WUHU216DAVISVP2,2013-02-03 00:02:00,
2013-02-02 19:07:00,28.9,25.8,30.07,SSW,196,1.0,4.0,88,0.00,,,0.10,WUHU216DAVISVP2,2013-02-03 00:07:00,
2013-02-02 19:12:00,28.7,25.6,30.07,SSW,195,0.0,4.0,88,0.00,,,0.10,WUHU216DAVISVP2,2013-02-03 00:12:00,
2013-02-02 19:17:00,28.6,25.7,30.07,SSW,195,2.0,4.0,89,0.00,,,0.10,WUHU216DAVISVP2,2013-02-03 00:17:00,
2013-02-02 19:22:00,28.4,25.5,30.07,SSW,195,1.0,3.0,89,0.00,,,0.10,WUHU216DAVISVP2,2013-02-03 00:22:00,
2013-02-02 19:27:00,28.4,25.8,30.07,South,187,1.0,3.0,90,0.00,,,0.10,WUHU216DAVISVP2,2013-02-03 00:27:00,
2013-02-02 19:32:00,28.4,25.8,30.07,South,181,0.0,3.0,90,0.00,,,0.10,WUHU216DAVISVP2,2013-02-03 00:32:00,
2013-02-02 19:37:00,28.3,25.7,30.07,South,171,2.0,4.0,90,0.00,,,0.10,WUHU216DAVISVP2,2013-02-03 00:37:00,
2013-02-02 19:42:00,28.3,25.7,30.07,South,171,0.0,4.0,90,0.00,,,0.10,WUHU216DAVISVP2,2013-02-03 00:42:00,
2013-02-02 19:47:00,28.3,25.7,30.07,South,171,1.0,4.0,90,0.00,,,0.10,WUHU216DAVISVP2,2013-02-03 00:47:00,
2013-02-02 19:52:00,28.3,25.7,30.07,SSW,196,0.0,4.0,90,0.00,,,0.10,WUHU216DAVISVP2,2013-02-03 00:52:00,
2013-02-02 19:57:00,28.4,25.8,30.07,SSW,196,0.0,3.0,90,0.00,,,0.10,WUHU216DAVISVP2,2013-02-03 00:57:00,
2013-02-02 20:02:00,28.5,25.9,30.07,SSW,196,0.0,3.0,90,0.00,,,0.10,WUHU216DAVISVP2,2013-02-03 01:02:00,
2013-02-02 20:07:00,28.5,25.9,30.07,South,182,0.0,3.0,90,0.00,,,0.10,WUHU216DAVISVP2,2013-02-03 01:07:00,
2013-02-02 20:12:00,28.5,25.9,30.07,South,181,1.0,3.0,90,0.00,,,0.10,WUHU216DAVISVP2,2013-02-03 01:12:00,
2013-02-02 20:17:00,28.5,25.9,30.06,South,181,0.0,3.0,90,0.00,,,0.10,WUHU216DAVISVP2,2013-02-03 01:17:00,
2013-02-02 20:22:00,28.5,26.2,30.06,South,180,0.0,3.0,91,0.00,,,0.10,WUHU216DAVISVP2,2013-02-03 01:22:00,
2013-02-02 20:30:00,28.4,26.1,30.06,South,171,1.0,3.0,91,0.00,,,0.10,WUHU216DAVISVP2,2013-02-03 01:30:00,
2013-02-02 20:35:00,28.4,26.1,30.06,South,171,0.0,3.0,91,0.00,,,0.10,WUHU216DAVISVP2,2013-02-03 01:35:00,
2013-02-02 20:40:00,28.5,26.2,30.05,South,171,0.0,3.0,91,0.00,,,0.10,WUHU216DAVISVP2,2013-02-03 01:40:00,
2013-02-02 20:45:00,28.5,26.2,30.06,South,171,0.0,2.0,91,0.00,,,0.10,WUHU216DAVISVP2,2013-02-03 01:45:00,
2013-02-02 20:50:00,28.4,26.1,30.05,South,171,0.0,2.0,91,0.00,,,0.10,WUHU216DAVISVP2,2013-02-03 01:50:00,
2013-02-02 20:55:00,28.4,26.1,30.05,South,171,1.0,3.0,91,0.00,,,0.10,WUHU216DAVISVP2,2013-02-03 01:55:00,
2013-02-02 21:00:00,28.4,26.1,30.05,South,170,0.0,3.0,91,0.00,,,0.10,WUHU216DAVISVP2,2013-02-03 02:00:00,
2013-02-02 21:05:00,28.5,26.2,30.04,South,171,2.0,3.0,91,0.00,,,0.10,WUHU216DAVISVP2,2013-02-03 02:05:00,
2013-02-02 21:10:00,28.4,26.1,30.04,South,171,0.0,3.0,91,0.00,,,0.10,WUHU216DAVISVP2,2013-02-03 02:10:00,
2013-02-02 21:15:00,28.4,26.3,30.03,South,170,0.0,3.0,92,0.00,,,0.10,WUHU216DAVISVP2,2013-02-03 02:15:00,
2013-02-02 21:20:00,28.4,26.3,30.03,South,170,0.0,3.0,92,0.00,,,0.10,WUHU216DAVISVP2,2013-02-03 02:20:00,
2013-02-02 21:25:00,28.4,26.3,30.03,South,170,0.0,3.0,92,0.00,,,0.10,WUHU216DAVISVP2,2013-02-03 02:25:00,
2013-02-02 21:31:00,28.4,26.3,30.02,South,170,0.0,3.0,92,0.00,,,0.10,WUHU216DAVISVP2,2013-02-03 02:31:00,
2013-02-02 21:36:00,28.4,26.3,30.02,South,170,0.0,3.0,92,0.00,,,0.10,WUHU216DAVISVP2,2013-02-03 02:36:00,
2013-02-02 21:41:00,28.5,26.4,30.02,SSE,164,0.0,2.0,92,0.00,,,0.10,WUHU216DAVISVP2,2013-02-03 02:41:00,
2013-02-02 21:46:00,28.5,26.4,30.02,SSE,164,0.0,2.0,92,0.00,,,0.10,WUHU216DAVISVP2,2013-02-03 02:46:00,
2013-02-02 21:51:00,28.5,26.4,30.02,SSE,164,0.0,2.0,92,0.00,,,0.10,WUHU216DAVISVP2,2013-02-03 02:51:00,
2013-02-02 21:56:00,28.6,26.5,30.02,SSE,152,0.0,2.0,92,0.00,,,0.10,WUHU216DAVISVP2,2013-02-03 02:56:00,
2013-02-02 22:01:00,28.7,26.6,30.02,SSE,149,0.0,3.0,92,0.00,,,0.10,WUHU216DAVISVP2,2013-02-03 03:01:00,
2013-02-02 22:06:00,28.8,26.7,30.02,SSE,150,0.0,3.0,92,0.00,,,0.10,WUHU216DAVISVP2,2013-02-03 03:06:00,
2013-02-02 22:11:00,28.8,26.7,30.02,SSE,166,0.0,3.0,92,0.00,,,0.10,WUHU216DAVISVP2,2013-02-03 03:11:00,
2013-02-02 22:16:00,28.9,26.8,30.01,SSE,166,0.0,3.0,92,0.00,,,0.10,WUHU216DAVISVP2,2013-02-03 03:16:00,
2013-02-02 22:21:00,29.0,26.9,30.01,SSE,166,0.0,3.0,92,0.00,,,0.10,WUHU216DAVISVP2,2013-02-03 03:21:00,
2013-02-02 22:26:00,29.1,27.0,30.01,SSE,166,0.0,3.0,92,0.00,,,0.10,WUHU216DAVISVP2,2013-02-03 03:26:00,
2013-02-02 22:31:00,29.4,27.3,30.01,SSE,166,0.0,2.0,92,0.00,,,0.10,WUHU216DAVISVP2,2013-02-03 03:31:00,
2013-02-02 22:36:00,29.6,27.5,30.01,SSE,166,0.0,2.0,92,0.00,,,0.10,WUHU216DAVISVP2,2013-02-03 03:36:00,
2013-02-02 22:42:00,29.6,27.6,30.01,SSE,166,0.0,2.0,92,0.00,,,0.10,WUHU216DAVISVP2,2013-02-03 03:42:00,
2013-02-02 22:47:00,29.7,27.7,30.01,SSW,197,1.0,2.0,92,0.00,,,0.10,WUHU216DAVISVP2,2013-02-03 03:47:00,
2013-02-02 22:53:00,29.8,27.4,30.01,SSW,203,0.0,2.0,91,0.00,,,0.10,WUHU216DAVISVP2,2013-02-03 03:53:00,
2013-02-02 22:58:00,29.8,27.4,30.01,SSW,203,0.0,2.0,91,0.00,,,0.10,WUHU216DAVISVP2,2013-02-03 03:58:00,
2013-02-02 23:03:00,29.7,27.3,30.01,SSW,203,0.0,2.0,91,0.00,,,0.10,WUHU216DAVISVP2,2013-02-03 04:03:00,
2013-02-02 23:08:00,29.8,27.4,30.00,SSW,203,0.0,2.0,91,0.00,,,0.10,WUHU216DAVISVP2,2013-02-03 04:08:00,
2013-02-02 23:13:00,29.7,27.4,30.01,SSW,203,0.0,0.0,91,0.00,,,0.10,WUHU216DAVISVP2,2013-02-03 04:13:00,
2013-02-02 23:18:00,29.4,26.8,30.01,SSW,203,0.0,0.0,90,0.00,,,0.10,WUHU216DAVISVP2,2013-02-03 04:18:00,
2013-02-02 23:23:00,29.4,27.0,30.01,SSW,203,0.0,0.0,91,0.00,,,0.10,WUHU216DAVISVP2,2013-02-03 04:23:00,
2013-02-02 23:28:00,29.6,27.5,30.01,SSW,203,0.0,0.0,92,0.00,,,0.10,WUHU216DAVISVP2,2013-02-03 04:28:00,
2013-02-02 23:33:00,29.5,27.1,30.01,SSW,203,0.0,0.0,91,0.00,,,0.10,WUHU216DAVISVP2,2013-02-03 04:33:00,
2013-02-02 23:38:00,29.2,26.9,30.00,SSW,203,0.0,0.0,91,0.00,,,0.10,WUHU216DAVISVP2,2013-02-03 04:38:00,
2013-02-02 23:44:00,29.1,26.8,30.00,SSW,203,0.0,0.0,91,0.00,,,0.10,WUHU216DAVISVP2,2013-02-03 04:44:00,
2013-02-02 23:49:00,29.0,27.0,30.00,SSW,203,0.0,0.0,92,0.00,,,0.10,WUHU216DAVISVP2,2013-02-03 04:49:00,
2013-02-02 23:54:00,29.1,27.0,30.00,SSW,203,0.0,0.0,92,0.00,,,0.10,WUHU216DAVISVP2,2013-02-03 04:54:00,
2013-02-02 23:59:00,29.0,26.9,29.99,SSW,203,0.0,0.0,92,0.00,,,0.10,WUHU216DAVISVP2,2013-02-03 04:59:00,